Regional Weather Roundup
Issued by NWS

Home | Current Version | Previous Version | Text Only | Print | Product List | Glossary Off
Versions: 1 2 3 4 5 6 7 8 9 10 11 12 13 14 15 16 17 18 19 20 21 22 23 24 25 26 27 28 29 30 31 32 33 34 35 36 37 38 39 40 41 42 43 44 45 46 47 48 49 50

000
ASUS43 KMKX 260300
RWRWI

WISCONSIN REGIONAL WEATHER ROUNDUP
NATIONAL WEATHER SERVICE MILWAUKEE/SULLIVAN WI
900 PM CST THU DEC 25 2014

NOTE: "FAIR" INDICATES FEW OR NO CLOUDS BELOW 12,000 FEET WITH NO
SIGNIFICANT WEATHER AND/OR OBSTRUCTIONS TO VISIBILITY.

WIZ001-002-006>008-014>016-023>028-260400-
NORTHWEST WISCONSIN

CITY           SKY/WX    TMP DP  RH WIND       PRES   REMARKS
SUPERIOR ARPT  CLOUDY    32  29  87 CALM      29.88R
ASHLAND        CLOUDY    32  29  88 S3        29.89R
HAYWARD        LGT SNOW  31  29  92 CALM      29.88R VSB 3/4
SIREN          LGT SNOW  32  31  98 CALM      29.89R
CUMBERLAND     LGT SNOW  30  30 100 CALM      29.86R
RICE LAKE      CLOUDY    32  31  97 N3        29.89R FOG
CHETEK         CLOUDY    32  30  94 CALM      29.87R
LADYSMITH      CLOUDY    32  31  98 CALM      29.89R FOG
EAU CLAIRE     NOT AVBL
MENOMONIE      CLOUDY    32  31  94 NE3       29.86F FOG
NEW RICHMOND   CLOUDY    32  32 100 NE5       29.86S FOG     WCI  27
OSCEOLA        LGT SNOW  32  32 100 CALM      29.90R
$$

WIZ003>005-009-010-017-018-260400-
NORTH CENTRAL WISCONSIN

CITY           SKY/WX    TMP DP  RH WIND       PRES   REMARKS
MANITOWISH WTR MIX PCPN  28  28 100 CALM      29.86R
ARBOR VITAE    LGT SNOW  32  31  95 CALM      29.86R
WOODRUFF       LGT SNOW  32  31  95 CALM      29.86R
RHINELANDER    LGT SNOW  29  28  96 CALM      29.87S FOG
EAGLE RIVER    MIX PCPN  30  30 100 CALM      29.86R
LAND O LAKES   LGT SNOW  30  30  99 CALM      29.86S
PHILLIPS       LGT SNOW  29  29 100 CALM      29.87R
TOMAHAWK       CLOUDY    30  28  94 CALM      29.87S FOG
MEDFORD        MOCLDY    28  26  91 SE3       29.86R
MERRILL        MOCLDY    30  29  96 CALM      29.87S
$$

WIZ029-030-035-036-043>047-260400-
CENTRAL WISCONSIN

CITY           SKY/WX    TMP DP  RH WIND       PRES   REMARKS
WAUSAU         MOCLDY    30  27  88 CALM      29.88R
MOSINEE        CLEAR     30  30 100 E3        29.89R
MARSHFIELD     MOCLDY    30  27  88 E6        29.86S WCI  24
STEVENS POINT  MOCLDY    28  27  95 CALM      29.89R
WAUPACA        CLOUDY    32  31  94 CALM      29.91R FOG
WAUTOMA        NOT AVBL
WISC RAPIDS    MOCLDY    29  26  89 CALM      29.89R
CAMP DOUGLAS   NOT AVBL
$$

WIZ011>013-019>022-031-037>040-048>050-260400-
NORTHEAST WISCONSIN

CITY           SKY/WX    TMP DP  RH WIND       PRES   REMARKS
ANTIGO         CLOUDY    28  28  96 CALM      29.87F
SHAWANO        CLOUDY    32  30  93 CALM      29.91S
OCONTO         FAIR      29  29 100 CALM      29.92S
STURGEON BAY   MOCLDY    34  28  80 S3        29.94S
GREEN BAY      CLOUDY    32  31  96 CALM      29.91S
MANITOWOC      NOT AVBL
APPLETON       PTCLDY    32  32 100 CALM      29.91R
CLINTONVILLE   CLOUDY    30  30 100 CALM      29.90S
OSHKOSH        CLOUDY    37  32  82 SW9       29.91R WCI  30
$$

WIZ032>034-041-042-053>061-260400-
SOUTHWEST WISCONSIN

CITY           SKY/WX    TMP DP  RH WIND       PRES   REMARKS
LA CROSSE      CLOUDY    31  29  92 CALM      29.86R
SPARTA         CLOUDY    29  29  99 CALM      29.87S
VIROQUA        CLOUDY    36  33  88 S12       29.84R WCI  28
BOSCOBEL       MOCLDY    33  29  85 CALM      29.89R
PRAIRIE DU CHI MOCLDY    42  31  65 SE3       29.87R
PLATTEVILLE    PTCLDY    38  33  81 S14       29.89R WCI  30
$$

WIZ056-057-062-063-064-067-068-260400-
SOUTH CENTRAL WISCONSIN

CITY           SKY/WX    TMP DP  RH WIND       PRES   REMARKS
REEDSBURG      CLOUDY    37  32  81 S8        29.88R WCI  31
BARABOO/DELLS  CLOUDY    38  32  77 S10G20    29.88R WCI  31
LONE ROCK      NOT AVBL
MINERAL POINT  MOCLDY    37  32  81 S8        29.89R WCI  31
MADISON        CLOUDY    40  33  76 S12       29.91R WCI  33
MIDDLETON      CLOUDY    40  32  75 S8        29.90S WCI  34
WATERTOWN      CLOUDY    38  35  87 S12       29.92R WCI  31
MONROE         CLOUDY    37  34  87 S18G25    29.90R WCI  27
JANESVILLE     CLEAR     43  36  75 S14G22    29.93R
$$

WIZ051-052-058>065-066-070>072-260400-
SOUTHEAST WISCONSIN

CITY           SKY/WX    TMP DP  RH WIND       PRES   REMARKS
MILWAUKEE      MOCLDY    40  33  76 S12       29.95S WCI  33
WAUKESHA       MOCLDY    37  32  81 S9        29.94S WCI  31
MILWAUKEE/TIMM CLEAR     39  32  75 S10       29.94S WCI  32
RACINE         CLOUDY    41  34  76 S13       29.97S
BURLINGTON     MOCLDY    37  33  84 S12G17    29.94S WCI  30
KENOSHA        CLOUDY    41  34  76 S15G22    29.95S
FOND DU LAC    CLOUDY    38  32  79 S15       29.91R WCI  29
SHEBOYGAN      MOCLDY    35  31  85 S8        29.92R WCI  29
WEST BEND      PTCLDY    36  32  87 S9        29.91F WCI  29
JUNEAU         CLOUDY    37  33  85 S10       29.92R WCI  29
$$

LSZ147-162-260400-
LAKE SUPERIOR

STATION/POSITION TIME  TEMP    WIND        PRES    WAVE
                       AIR SEA DIR/SP/G            HT/PER
                 (UTC) (F)     (DEG/KT/KT) (MB)    (FT/S)
DEVILS ISLAND    0200   34     260/  6/  8 1012.3R
PORT WING        0200   33     210/  2/  4 1011.9R
SAXON HARBOR     0200   33     190/  2/  3 1012.2R
$$

LMZ867-665-643>646-260400-
LAKE MICHIGAN

STATION/POSITION TIME  TEMP    WIND        PRES    WAVE
                       AIR SEA DIR/SP/G            HT/PER
                 (UTC) (F)     (DEG/KT/KT) (MB)    (FT/S)
CHAMBERS ISLAND  0200   35     190/  5/  8 1013.5R
NORTHPORT PIER   0200   34     150/  1/  4 1013.5R
SISTER BAY       0113          200/  6/  9   N/A
ALGOMA LAKESHORE 0215             CALM       N/A
KEWAUNEE LAKESHO 0200   36     190/  2/  4 1012.6R
SHEBOYGAN LAKESH 0200   39 37  190/ 16/ 18 1013.8F
PORT WASHINGTON  0240   40     210/  8/ 12 1014.2S
MILWAUKEE LAKESH 0200   40     200/ 14/ 17   N/A
KENOSHA   LAKESH 0200   42     190/ 14/ 20 1014.6R
$$

TC  - TEMPERATURE IN CELSIUS
VSB - VISIBILITY IN STATUTE MILES
WCI - WIND CHILL INDEX
HX  - HEAT INDEX




USA.gov is the U.S. government's official web portal to all federal, state and local government web resources and services.